Change the Weather History Date:

Tuesday, February 11, 2014

  Actual Average Record
Temperature  
Mean Temperature 28 °F 40 °F  
Max Temperature 35 °F 49 °F 71 °F (2009)
Min Temperature 21 °F 31 °F 10 °F (1979)
Degree Days  
Heating Degree Days 37 25  
Month to date heating degree days 273 282  
Since 1 July heating degree days 2609 2610  
Cooling Degree Days 0 0  
Month to date cooling degree days 0 0  
Year to date cooling degree days 0 0  
Moisture  
Dew Point 15 °F    
Average Humidity 56    
Maximum Humidity 71    
Minimum Humidity 41    
Precipitation  
Precipitation 0.00 in 0.11 in 1.22 in (1981)
Month to date precipitation 0.78 1.23  
Year to date precipitation 4.07 4.65  
Snow  
Snow 0.00 in - - ()
Month to date snowfall 0.0  
Since 1 July snowfall 1.6  
Snow Depth 0.00 in    
Sea Level Pressure  
Sea Level Pressure 30.33 in    
Wind  
Wind Speed 5 mph (NE)    
Max Wind Speed 14 mph    
Max Gust Speed 17 mph    
Visibility 10 miles    
Events      
T = Trace of Precipitation, MM = Missing Value Source: NWS Daily Summary

Daily Weather History Graph

Daily Weather History Graph

Search for Another Location

Airport or City:

Trip Planner

Search our weather history database for the weather conditions in past years. The results will help you decide how hot, cold, wet, or windy it might be!

Date:

Astronomy

Feb. 11, 2014 Rise Set
Actual Time 7:09 AM EST 5:53 PM EST
Civil Twilight 6:43 AM EST 6:20 PM EST
Nautical Twilight 6:12 AM EST 6:50 PM EST
Astronomical Twilight 5:42 AM EST 7:21 PM EST
Moon 3:14 PM EST (2/11) 4:43 AM EST (2/11)
Length of Visible Light 11h 37m
Length of Day
10h 44m
Waxing Gibbous, 90% of the Moon is Illuminated
Feb 11
Waxing Gibbous
Feb 14
Full
Feb 22
Last Quarter
Mar 1
New
Mar 8
First Quarter

Hourly Weather History & Observations

Time (EST) Temp. Windchill Dew Point Humidity Pressure Visibility Wind Dir Wind Speed Gust Speed Precip Events Conditions
12:53 AM 32.0 °F 24.8 °F 12.0 °F 44% 30.25 in 10.0 mi North 8.1 mph - N/A   Clear
1:53 AM 30.0 °F 24.1 °F 15.1 °F 54% 30.25 in 10.0 mi North 5.8 mph - N/A   Clear
2:53 AM 28.9 °F 21.1 °F 19.0 °F 67% 30.26 in 10.0 mi North 8.1 mph - N/A   Scattered Clouds
3:04 AM 30.2 °F 24.3 °F 19.4 °F 64% 30.26 in 10.0 mi North 5.8 mph - N/A   Mostly Cloudy
3:53 AM 30.9 °F 25.2 °F 19.9 °F 64% 30.26 in 10.0 mi NNE 5.8 mph - N/A   Overcast
4:50 AM 30.2 °F 22.6 °F 19.4 °F 64% 30.28 in 10.0 mi NNE 8.1 mph - N/A   Overcast
4:53 AM 30.0 °F 23.2 °F 19.9 °F 66% 30.28 in 10.0 mi NNE 6.9 mph - N/A   Overcast
5:53 AM 30.9 °F 23.5 °F 19.9 °F 64% 30.29 in 10.0 mi NE 8.1 mph - N/A   Overcast
6:53 AM 30.9 °F 22.2 °F 19.0 °F 61% 30.32 in 10.0 mi NE 10.4 mph - N/A   Overcast
7:53 AM 30.0 °F 23.2 °F 17.1 °F 59% 30.34 in 10.0 mi ENE 6.9 mph - N/A   Overcast
8:51 AM 30.2 °F 21.9 °F 15.8 °F 55% 30.36 in 10.0 mi ENE 9.2 mph - N/A   Overcast
8:53 AM 30.0 °F 21.1 °F 16.0 °F 56% 30.36 in 10.0 mi NE 10.4 mph - N/A   Overcast
9:53 AM 30.0 °F 21.7 °F 16.0 °F 56% 30.36 in 10.0 mi East 9.2 mph - N/A   Mostly Cloudy
10:53 AM 30.0 °F 22.4 °F 15.1 °F 54% 30.38 in 10.0 mi ENE 8.1 mph - N/A   Overcast
11:53 AM 30.0 °F 22.4 °F 14.0 °F 51% 30.37 in 10.0 mi ENE 8.1 mph - N/A   Scattered Clouds
12:53 PM 32.0 °F 26.4 °F 12.9 °F 45% 30.35 in 10.0 mi ENE 5.8 mph - N/A   Clear
1:53 PM 32.0 °F 26.4 °F 12.9 °F 45% 30.32 in 10.0 mi ENE 5.8 mph - N/A   Clear
2:53 PM 33.1 °F 30.0 °F 12.9 °F 43% 30.32 in 10.0 mi East 3.5 mph - N/A   Clear
3:53 PM 34.0 °F 29.8 °F 12.0 °F 40% 30.32 in 10.0 mi East 4.6 mph - N/A   Clear
4:53 PM 34.0 °F - 12.9 °F 42% 30.33 in 10.0 mi Calm Calm - N/A   Clear
5:53 PM 30.9 °F - 12.0 °F 46% 30.34 in 10.0 mi Calm Calm - N/A   Clear
6:53 PM 28.9 °F - 12.9 °F 51% 30.35 in 10.0 mi Calm Calm - N/A   Clear
7:53 PM 26.1 °F - 12.9 °F 58% 30.37 in 10.0 mi Calm Calm - N/A   Clear
8:53 PM 24.1 °F - 12.9 °F 62% 30.39 in 10.0 mi Calm Calm - N/A   Clear
9:53 PM 23.0 °F - 14.0 °F 68% 30.40 in 10.0 mi Calm Calm - N/A   Clear
10:53 PM 21.9 °F - 14.0 °F 72% 30.41 in 10.0 mi Calm Calm - N/A   Clear
11:53 PM 21.0 °F - 12.9 °F 71% 30.41 in 10.0 mi Calm Calm - N/A   Clear